Time,TemperatureF,DewpointF,PressureIn,WindDirection,WindDirectionDegrees,WindSpeedMPH,WindSpeedGustMPH,Humidity,HourlyPrecipIn,Conditions,Clouds,dailyrainin,SolarRadiationWatts/m^2,SoftwareType,DateUTC
2013-07-24 00:03:00,59.9,54.7,29.93,East,87,0.0,0.0,83,0.00,,SKC,0.00,0.00,VWS V14.00,2013-07-24 05:03:00,
2013-07-24 00:09:00,59.9,54.7,29.93,East,87,0.0,0.0,83,0.00,,SKC,0.00,0.00,VWS V14.00,2013-07-24 05:09:00,
2013-07-24 00:14:00,59.9,54.7,29.93,East,87,1.0,1.0,83,0.00,,SKC,0.00,0.00,VWS V14.00,2013-07-24 05:14:00,
2013-07-24 00:19:00,60.0,54.5,29.93,East,87,0.0,2.0,82,0.00,,SKC,0.00,0.00,VWS V14.00,2013-07-24 05:19:00,
2013-07-24 00:24:00,60.4,54.5,29.93,East,87,0.0,0.0,81,0.00,,SKC,0.00,0.00,VWS V14.00,2013-07-24 05:24:00,
2013-07-24 00:29:00,60.8,54.9,29.93,East,87,0.0,0.0,81,0.00,,SKC,0.00,0.00,VWS V14.00,2013-07-24 05:29:00,
2013-07-24 00:34:00,60.9,54.7,29.93,East,87,0.0,0.0,80,0.00,,SKC,0.00,0.00,VWS V14.00,2013-07-24 05:34:00,
2013-07-24 00:39:00,61.2,55.0,29.93,East,87,2.0,2.0,80,0.00,,SKC,0.00,0.00,VWS V14.00,2013-07-24 05:39:00,
2013-07-24 00:44:00,61.4,54.8,29.93,East,87,0.0,1.0,79,0.00,,SKC,0.00,0.00,VWS V14.00,2013-07-24 05:44:00,
2013-07-24 00:49:00,61.7,54.8,29.93,East,87,1.0,1.0,78,0.00,,SKC,0.00,0.00,VWS V14.00,2013-07-24 05:49:00,
2013-07-24 00:54:00,61.9,55.0,29.93,East,87,0.0,0.0,78,0.00,,SKC,0.00,0.00,VWS V14.00,2013-07-24 05:54:00,
2013-07-24 00:59:00,62.1,54.8,29.93,East,87,0.0,0.0,77,0.00,,SKC,0.00,0.00,VWS V14.00,2013-07-24 05:59:00,
2013-07-24 01:04:00,62.2,54.5,29.93,East,87,0.0,0.0,76,0.00,,SKC,0.00,0.00,VWS V14.00,2013-07-24 06:04:00,
2013-07-24 01:09:00,62.3,55.0,29.93,East,87,0.0,0.0,77,0.00,,SKC,0.00,0.00,VWS V14.00,2013-07-24 06:09:00,
2013-07-24 01:14:00,62.3,54.7,29.94,East,87,0.0,0.0,76,0.00,,SKC,0.00,0.00,VWS V14.00,2013-07-24 06:14:00,
2013-07-24 01:19:00,62.2,54.5,29.94,East,87,0.0,1.0,76,0.00,,SKC,0.00,0.00,VWS V14.00,2013-07-24 06:19:00,
2013-07-24 01:25:00,62.2,54.5,29.93,East,87,0.0,0.0,76,0.00,,SKC,0.00,0.00,VWS V14.00,2013-07-24 06:25:00,
2013-07-24 01:30:00,62.1,54.5,29.93,East,87,0.0,0.0,76,0.00,,SKC,0.00,0.00,VWS V14.00,2013-07-24 06:30:00,
2013-07-24 01:35:00,61.9,54.3,29.93,East,87,1.0,2.0,76,0.00,,SKC,0.00,0.00,VWS V14.00,2013-07-24 06:35:00,
2013-07-24 01:40:00,61.8,54.2,29.93,East,87,0.0,2.0,76,0.00,,SKC,0.00,0.00,VWS V14.00,2013-07-24 06:40:00,
2013-07-24 01:45:00,61.8,54.2,29.93,East,87,0.0,0.0,76,0.00,,SKC,0.00,0.00,VWS V14.00,2013-07-24 06:45:00,
2013-07-24 01:50:00,61.8,54.2,29.93,East,87,0.0,0.0,76,0.00,,SKC,0.00,0.00,VWS V14.00,2013-07-24 06:50:00,
2013-07-24 01:55:00,61.8,54.2,29.93,East,87,0.0,0.0,76,0.00,,SKC,0.00,0.00,VWS V14.00,2013-07-24 06:55:00,
2013-07-24 02:00:00,61.8,54.2,29.94,East,87,0.0,0.0,76,0.00,,SKC,0.00,0.00,VWS V14.00,2013-07-24 07:00:00,
2013-07-24 02:05:00,61.8,54.5,29.94,East,87,0.0,0.0,77,0.00,,SKC,0.00,0.00,VWS V14.00,2013-07-24 07:05:00,
2013-07-24 02:10:00,61.7,54.8,29.94,East,87,0.0,0.0,78,0.00,,SKC,0.00,0.00,VWS V14.00,2013-07-24 07:10:00,
2013-07-24 02:15:00,61.7,54.8,29.94,East,87,0.0,0.0,78,0.00,,SKC,0.00,0.00,VWS V14.00,2013-07-24 07:15:00,
2013-07-24 02:20:00,61.6,54.7,29.94,East,87,0.0,0.0,78,0.00,,SKC,0.00,0.00,VWS V14.00,2013-07-24 07:20:00,
2013-07-24 02:25:00,61.4,55.2,29.94,East,87,0.0,0.0,80,0.00,,SKC,0.00,0.00,VWS V14.00,2013-07-24 07:25:00,
2013-07-24 02:30:00,61.2,55.0,29.94,East,87,0.0,0.0,80,0.00,,SKC,0.00,0.00,VWS V14.00,2013-07-24 07:30:00,
2013-07-24 02:35:00,61.1,55.2,29.94,East,87,0.0,0.0,81,0.00,,SKC,0.00,0.00,VWS V14.00,2013-07-24 07:35:00,
2013-07-24 02:40:00,61.0,55.5,29.93,East,87,0.0,0.0,82,0.00,,SKC,0.00,0.00,VWS V14.00,2013-07-24 07:40:00,
2013-07-24 02:45:00,60.9,55.4,29.93,East,87,0.0,0.0,82,0.00,,SKC,0.00,0.00,VWS V14.00,2013-07-24 07:45:00,
2013-07-24 02:50:00,60.8,55.3,29.93,East,87,0.0,0.0,82,0.00,,SKC,0.00,0.00,VWS V14.00,2013-07-24 07:50:00,
2013-07-24 02:55:00,60.7,55.2,29.93,East,87,0.0,0.0,82,0.00,,SKC,0.00,0.00,VWS V14.00,2013-07-24 07:55:00,
2013-07-24 03:00:00,60.7,55.5,29.94,East,87,0.0,0.0,83,0.00,,SKC,0.00,0.00,VWS V14.00,2013-07-24 08:00:00,
2013-07-24 03:05:00,60.6,55.8,29.93,East,87,0.0,0.0,84,0.00,,SKC,0.00,0.00,VWS V14.00,2013-07-24 08:05:00,
2013-07-24 03:10:00,60.6,55.8,29.93,East,87,0.0,0.0,84,0.00,,SKC,0.00,0.00,VWS V14.00,2013-07-24 08:10:00,
2013-07-24 03:15:00,60.5,55.7,29.93,East,87,1.0,3.0,84,0.00,,SKC,0.00,0.00,VWS V14.00,2013-07-24 08:15:00,
2013-07-24 03:20:00,60.5,55.7,29.93,East,87,2.0,2.0,84,0.00,,SKC,0.00,0.00,VWS V14.00,2013-07-24 08:20:00,
2013-07-24 03:25:00,60.6,55.8,29.93,East,95,0.0,1.0,84,0.00,,SKC,0.00,0.00,VWS V14.00,2013-07-24 08:25:00,
2013-07-24 03:30:00,60.8,55.9,29.93,East,95,0.0,1.0,84,0.00,,SKC,0.00,0.00,VWS V14.00,2013-07-24 08:30:00,
2013-07-24 03:35:00,60.9,56.4,29.93,East,95,0.0,0.0,85,0.00,,SKC,0.00,0.00,VWS V14.00,2013-07-24 08:35:00,
2013-07-24 03:41:00,61.0,56.5,29.93,East,95,0.0,0.0,85,0.00,,SKC,0.00,0.00,VWS V14.00,2013-07-24 08:41:00,
2013-07-24 03:46:00,61.1,56.2,29.93,East,95,0.0,0.0,84,0.00,,SKC,0.00,0.00,VWS V14.00,2013-07-24 08:46:00,
2013-07-24 03:51:00,61.2,56.7,29.93,East,95,0.0,0.0,85,0.00,,SKC,0.00,0.00,VWS V14.00,2013-07-24 08:51:00,
2013-07-24 03:56:00,61.2,56.3,29.93,East,95,0.0,0.0,84,0.00,,SKC,0.00,0.00,VWS V14.00,2013-07-24 08:56:00,
2013-07-24 04:01:00,61.4,56.5,29.93,East,96,0.0,1.0,84,0.00,,SKC,0.00,0.00,VWS V14.00,2013-07-24 09:01:00,
2013-07-24 04:06:00,61.6,57.0,29.93,East,96,0.0,1.0,85,0.00,,SKC,0.00,0.00,VWS V14.00,2013-07-24 09:06:00,
2013-07-24 04:11:00,61.7,57.2,29.93,East,96,0.0,0.0,85,0.00,,SKC,0.00,0.00,VWS V14.00,2013-07-24 09:11:00,
2013-07-24 04:16:00,61.8,57.2,29.93,East,96,0.0,0.0,85,0.00,,SKC,0.00,0.00,VWS V14.00,2013-07-24 09:16:00,
2013-07-24 04:21:00,61.9,57.3,29.93,East,96,0.0,1.0,85,0.00,,SKC,0.00,0.00,VWS V14.00,2013-07-24 09:21:00,
2013-07-24 04:26:00,61.9,57.3,29.94,East,96,1.0,1.0,85,0.00,,SKC,0.00,0.00,VWS V14.00,2013-07-24 09:26:00,
2013-07-24 04:31:00,61.8,57.2,29.94,East,96,0.0,1.0,85,0.00,,SKC,0.00,0.00,VWS V14.00,2013-07-24 09:31:00,
2013-07-24 04:36:00,61.8,57.2,29.94,East,96,0.0,0.0,85,0.00,,SKC,0.00,0.00,VWS V14.00,2013-07-24 09:36:00,
2013-07-24 04:41:00,61.9,57.3,29.94,East,96,0.0,0.0,85,0.00,,SKC,0.00,0.00,VWS V14.00,2013-07-24 09:41:00,
2013-07-24 04:46:00,61.9,57.7,29.94,East,96,0.0,1.0,86,0.00,,SKC,0.00,0.00,VWS V14.00,2013-07-24 09:46:00,
2013-07-24 04:51:00,61.9,57.3,29.94,East,96,0.0,1.0,85,0.00,,SKC,0.00,0.00,VWS V14.00,2013-07-24 09:51:00,
2013-07-24 04:56:00,61.9,57.3,29.94,East,96,0.0,0.0,85,0.00,,SKC,0.00,0.00,VWS V14.00,2013-07-24 09:56:00,
2013-07-24 05:01:00,62.0,57.5,29.94,East,96,0.0,1.0,85,0.00,,SKC,0.00,0.00,VWS V14.00,2013-07-24 10:01:00,
2013-07-24 05:06:00,62.0,57.5,29.94,East,96,0.0,1.0,85,0.00,,SKC,0.00,0.00,VWS V14.00,2013-07-24 10:06:00,
2013-07-24 05:11:00,62.0,57.5,29.94,East,96,0.0,1.0,85,0.00,,SKC,0.00,0.00,VWS V14.00,2013-07-24 10:11:00,
2013-07-24 05:16:00,62.1,57.5,29.94,East,96,0.0,0.0,85,0.00,,SKC,0.00,0.00,VWS V14.00,2013-07-24 10:16:00,
2013-07-24 05:21:00,62.2,58.0,29.94,East,96,0.0,1.0,86,0.00,,SKC,0.00,0.00,VWS V14.00,2013-07-24 10:21:00,
2013-07-24 05:26:00,62.1,57.9,29.94,East,96,0.0,1.0,86,0.00,,SKC,0.00,0.00,VWS V14.00,2013-07-24 10:26:00,
2013-07-24 05:31:00,62.2,57.6,29.94,East,96,0.0,1.0,85,0.00,,SKC,0.00,0.00,VWS V14.00,2013-07-24 10:31:00,
2013-07-24 05:37:00,62.2,57.6,29.93,ESE,109,0.0,2.0,85,0.00,,SKC,0.00,0.00,VWS V14.00,2013-07-24 10:37:00,
2013-07-24 05:42:00,62.2,57.3,29.94,SSE,162,0.0,3.0,84,0.00,,SKC,0.00,0.00,VWS V14.00,2013-07-24 10:42:00,
2013-07-24 05:47:00,62.3,57.4,29.94,SSE,162,1.0,1.0,84,0.00,,SKC,0.00,0.00,VWS V14.00,2013-07-24 10:47:00,
2013-07-24 05:52:00,62.4,57.5,29.94,SSE,162,1.0,3.0,84,0.00,,SKC,0.00,0.00,VWS V14.00,2013-07-24 10:52:00,
2013-07-24 05:57:00,62.5,57.3,29.94,SSE,162,0.0,1.0,83,0.00,,SKC,0.00,0.00,VWS V14.00,2013-07-24 10:57:00,
2013-07-24 06:02:00,62.6,57.4,29.94,SSE,162,0.0,1.0,83,0.00,,SKC,0.00,0.00,VWS V14.00,2013-07-24 11:02:00,
2013-07-24 06:07:00,62.7,57.5,29.94,SSE,162,1.0,1.0,83,0.00,,SKC,0.00,0.00,VWS V14.00,2013-07-24 11:07:00,
2013-07-24 06:12:00,62.7,57.5,29.94,SSE,162,1.0,1.0,83,0.00,,SKC,0.00,5.00,VWS V14.00,2013-07-24 11:12:00,
2013-07-24 06:17:00,62.7,57.5,29.94,SSE,162,0.0,1.0,83,0.00,,SKC,0.00,7.00,VWS V14.00,2013-07-24 11:17:00,
2013-07-24 06:22:00,62.8,57.6,29.94,SSE,162,0.0,0.0,83,0.00,,SKC,0.00,9.00,VWS V14.00,2013-07-24 11:22:00,
2013-07-24 06:27:00,62.8,57.2,29.94,SSE,162,0.0,1.0,82,0.00,,SKC,0.00,9.00,VWS V14.00,2013-07-24 11:27:00,
2013-07-24 06:32:00,62.8,57.2,29.94,SSE,162,0.0,1.0,82,0.00,,SKC,0.00,14.00,VWS V14.00,2013-07-24 11:32:00,
2013-07-24 06:37:00,62.9,57.3,29.94,SSE,162,0.0,1.0,82,0.00,,SKC,0.00,18.00,VWS V14.00,2013-07-24 11:37:00,
2013-07-24 06:42:00,62.9,57.3,29.94,SSE,162,0.0,0.0,82,0.00,,SKC,0.00,19.00,VWS V14.00,2013-07-24 11:42:00,
2013-07-24 06:47:00,62.9,57.3,29.94,SSE,162,0.0,2.0,82,0.00,,SKC,0.00,26.00,VWS V14.00,2013-07-24 11:47:00,
2013-07-24 06:52:00,63.1,57.2,29.95,SSE,162,0.0,3.0,81,0.00,,SKC,0.00,28.00,VWS V14.00,2013-07-24 11:52:00,
2013-07-24 06:57:00,63.2,56.9,29.95,SSE,162,1.0,3.0,80,0.00,,SKC,0.00,26.00,VWS V14.00,2013-07-24 11:57:00,
2013-07-24 07:02:00,63.4,57.1,29.95,SSW,195,2.0,5.0,80,0.00,,SKC,0.00,28.00,VWS V14.00,2013-07-24 12:02:00,
2013-07-24 07:07:00,63.6,57.0,29.95,SSW,195,2.0,4.0,79,0.00,,SKC,0.00,35.00,VWS V14.00,2013-07-24 12:07:00,
2013-07-24 07:12:00,63.8,57.2,29.95,SSW,195,0.0,4.0,79,0.00,,SKC,0.00,40.00,VWS V14.00,2013-07-24 12:12:00,
2013-07-24 07:17:00,64.0,57.0,29.95,SSW,195,0.0,1.0,78,0.00,,SKC,0.00,44.00,VWS V14.00,2013-07-24 12:17:00,
2013-07-24 07:22:00,64.1,56.4,29.95,SW,234,3.0,5.0,76,0.00,,SKC,0.00,44.00,VWS V14.00,2013-07-24 12:22:00,
2013-07-24 07:27:00,64.2,56.8,29.95,SW,234,0.0,3.0,77,0.00,,SKC,0.00,47.00,VWS V14.00,2013-07-24 12:27:00,
2013-07-24 07:32:00,64.4,57.0,29.95,SW,234,0.0,2.0,77,0.00,,SKC,0.00,44.00,VWS V14.00,2013-07-24 12:32:00,
2013-07-24 07:37:00,64.4,57.0,29.95,SW,234,0.0,2.0,77,0.00,,SKC,0.00,47.00,VWS V14.00,2013-07-24 12:37:00,
2013-07-24 07:42:00,64.7,57.7,29.95,SW,229,3.0,5.0,78,0.00,,SKC,0.00,58.00,VWS V14.00,2013-07-24 12:42:00,
2013-07-24 07:47:00,64.8,57.8,29.95,West,265,3.0,4.0,78,0.00,,SKC,0.00,262.00,VWS V14.00,2013-07-24 12:47:00,
2013-07-24 07:52:00,65.1,58.1,29.95,West,263,0.0,1.0,78,0.00,,SKC,0.00,230.00,VWS V14.00,2013-07-24 12:52:00,
2013-07-24 07:57:00,65.3,58.3,29.95,West,263,3.0,3.0,78,0.00,,SKC,0.00,279.00,VWS V14.00,2013-07-24 12:57:00,
2013-07-24 08:02:00,65.5,58.5,29.95,WSW,250,1.0,4.0,78,0.00,,SKC,0.00,297.00,VWS V14.00,2013-07-24 13:02:00,
2013-07-24 08:07:00,65.9,58.9,29.95,SW,234,2.0,6.0,78,0.00,,SKC,0.00,315.00,VWS V14.00,2013-07-24 13:07:00,
2013-07-24 08:12:00,66.3,59.2,29.95,West,275,1.0,3.0,78,0.00,,SKC,0.00,329.00,VWS V14.00,2013-07-24 13:12:00,
2013-07-24 08:17:00,66.6,59.2,29.95,WNW,290,0.0,3.0,77,0.00,,SKC,0.00,343.00,VWS V14.00,2013-07-24 13:17:00,
2013-07-24 08:23:00,66.9,59.5,29.95,NNW,333,2.0,4.0,77,0.00,,SKC,0.00,357.00,VWS V14.00,2013-07-24 13:23:00,
2013-07-24 08:28:00,67.2,59.4,29.95,NNW,328,0.0,3.0,76,0.00,,SKC,0.00,367.00,VWS V14.00,2013-07-24 13:28:00,
2013-07-24 08:33:00,67.5,59.7,29.96,NW,306,0.0,3.0,76,0.00,,SKC,0.00,381.00,VWS V14.00,2013-07-24 13:33:00,
2013-07-24 08:38:00,67.8,60.0,29.96,WNW,291,1.0,5.0,76,0.00,,SKC,0.00,396.00,VWS V14.00,2013-07-24 13:38:00,
2013-07-24 08:43:00,68.1,60.3,29.96,WNW,300,2.0,3.0,76,0.00,,SKC,0.00,408.00,VWS V14.00,2013-07-24 13:43:00,
2013-07-24 08:48:00,68.3,60.1,29.96,WNW,284,2.0,3.0,75,0.00,,SKC,0.00,424.00,VWS V14.00,2013-07-24 13:48:00,
2013-07-24 08:53:00,68.6,60.7,29.96,WNW,284,0.0,2.0,76,0.00,,SKC,0.00,436.00,VWS V14.00,2013-07-24 13:53:00,
2013-07-24 08:58:00,69.1,59.7,29.96,WNW,296,2.0,5.0,72,0.00,,SKC,0.00,452.00,VWS V14.00,2013-07-24 13:58:00,
2013-07-24 09:03:00,69.4,60.4,29.96,WNW,289,3.0,5.0,73,0.00,,SKC,0.00,471.00,VWS V14.00,2013-07-24 14:03:00,
2013-07-24 09:08:00,69.8,60.8,29.96,WNW,293,2.0,3.0,73,0.00,,SKC,0.00,480.00,VWS V14.00,2013-07-24 14:08:00,
2013-07-24 09:13:00,70.3,60.1,29.95,NNW,333,0.0,6.0,70,0.00,,SKC,0.00,497.00,VWS V14.00,2013-07-24 14:13:00,
2013-07-24 09:18:00,70.7,60.8,29.96,West,263,0.0,3.0,71,0.00,,SKC,0.00,510.00,VWS V14.00,2013-07-24 14:18:00,
2013-07-24 09:23:00,71.0,59.5,29.96,West,271,0.0,4.0,67,0.00,,SKC,0.00,527.00,VWS V14.00,2013-07-24 14:23:00,
2013-07-24 09:28:00,71.3,59.8,29.96,West,281,2.0,5.0,67,0.00,,SKC,0.00,543.00,VWS V14.00,2013-07-24 14:28:00,
2013-07-24 09:33:00,71.7,60.2,29.96,WNW,295,3.0,3.0,67,0.00,,SKC,0.00,552.00,VWS V14.00,2013-07-24 14:33:00,
2013-07-24 09:38:00,72.1,60.1,29.96,NNE,26,0.0,4.0,66,0.00,,SKC,0.00,570.00,VWS V14.00,2013-07-24 14:38:00,
2013-07-24 09:43:00,72.6,60.6,29.96,WNW,290,0.0,3.0,66,0.00,,SKC,0.00,584.00,VWS V14.00,2013-07-24 14:43:00,
2013-07-24 09:48:00,73.0,60.1,29.96,NNE,13,2.0,4.0,64,0.00,,SKC,0.00,598.00,VWS V14.00,2013-07-24 14:48:00,
2013-07-24 09:53:00,73.2,60.3,29.96,NNW,342,1.0,3.0,64,0.00,,SKC,0.00,603.00,VWS V14.00,2013-07-24 14:53:00,
2013-07-24 09:58:00,73.5,60.2,29.96,NW,317,3.0,4.0,63,0.00,,SKC,0.00,621.00,VWS V14.00,2013-07-24 14:58:00,
2013-07-24 10:03:00,73.8,60.4,29.96,West,277,5.0,5.0,63,0.00,,SKC,0.00,636.00,VWS V14.00,2013-07-24 15:03:00,
2013-07-24 10:08:00,73.8,60.0,29.95,NNE,15,1.0,5.0,62,0.00,,SKC,0.00,645.00,VWS V14.00,2013-07-24 15:08:00,
2013-07-24 10:13:00,74.0,59.2,29.96,NNW,336,2.0,6.0,60,0.00,,SKC,0.00,657.00,VWS V14.00,2013-07-24 15:13:00,
2013-07-24 10:18:00,74.0,60.2,29.95,NW,315,0.0,3.0,62,0.00,,SKC,0.00,670.00,VWS V14.00,2013-07-24 15:18:00,
2013-07-24 10:23:00,74.2,59.4,29.95,North,349,0.0,4.0,60,0.00,,SKC,0.00,682.00,VWS V14.00,2013-07-24 15:23:00,
2013-07-24 10:28:00,74.6,58.9,29.96,NW,320,3.0,5.0,58,0.00,,SKC,0.00,693.00,VWS V14.00,2013-07-24 15:28:00,
2013-07-24 10:33:00,74.8,59.5,29.95,NW,305,2.0,7.0,59,0.00,,SKC,0.00,701.00,VWS V14.00,2013-07-24 15:33:00,
2013-07-24 10:39:00,75.1,59.3,29.95,North,360,0.0,4.0,58,0.00,,SKC,0.00,715.00,VWS V14.00,2013-07-24 15:39:00,
2013-07-24 10:44:00,75.5,59.7,29.95,NNW,329,1.0,4.0,58,0.00,,SKC,0.00,722.00,VWS V14.00,2013-07-24 15:44:00,
2013-07-24 10:49:00,75.8,60.0,29.95,North,355,1.0,2.0,58,0.00,,SKC,0.00,737.00,VWS V14.00,2013-07-24 15:49:00,
2013-07-24 10:54:00,76.1,59.8,29.95,North,355,1.0,4.0,57,0.00,,SKC,0.00,744.00,VWS V14.00,2013-07-24 15:54:00,
2013-07-24 10:59:00,76.6,59.2,29.95,SW,236,1.0,2.0,55,0.00,,SKC,0.00,761.00,VWS V14.00,2013-07-24 15:59:00,
2013-07-24 11:04:00,76.8,58.9,29.95,East,98,2.0,2.0,54,0.00,,SKC,0.00,770.00,VWS V14.00,2013-07-24 16:04:00,
2013-07-24 11:09:00,76.7,58.8,29.95,NW,320,3.0,3.0,54,0.00,,SKC,0.00,772.00,VWS V14.00,2013-07-24 16:09:00,
2013-07-24 11:14:00,76.8,58.9,29.95,NNW,338,0.0,1.0,54,0.00,,SKC,0.00,786.00,VWS V14.00,2013-07-24 16:14:00,
2013-07-24 11:19:00,76.8,58.9,29.95,NW,323,1.0,3.0,54,0.00,,SKC,0.00,809.00,VWS V14.00,2013-07-24 16:19:00,
2013-07-24 11:24:00,77.1,58.7,29.95,NW,315,0.0,3.0,53,0.00,,SKC,0.00,821.00,VWS V14.00,2013-07-24 16:24:00,
2013-07-24 11:29:00,77.3,58.8,29.95,NW,321,3.0,3.0,53,0.00,,SKC,0.00,842.00,VWS V14.00,2013-07-24 16:29:00,
2013-07-24 11:34:00,77.0,58.6,29.95,NNW,336,0.0,2.0,53,0.00,,SKC,0.00,847.00,VWS V14.00,2013-07-24 16:34:00,
2013-07-24 11:39:00,76.8,58.4,29.95,North,5,2.0,3.0,53,0.00,,SKC,0.00,851.00,VWS V14.00,2013-07-24 16:39:00,
2013-07-24 11:44:00,76.9,59.5,29.95,NNE,30,2.0,2.0,55,0.00,,SKC,0.00,879.00,VWS V14.00,2013-07-24 16:44:00,
2013-07-24 11:49:00,76.9,58.5,29.95,NNW,330,1.0,2.0,53,0.00,,SKC,0.00,870.00,VWS V14.00,2013-07-24 16:49:00,
2013-07-24 11:54:00,76.9,58.5,29.95,NNW,333,2.0,3.0,53,0.00,,SKC,0.00,909.00,VWS V14.00,2013-07-24 16:54:00,
2013-07-24 11:59:00,76.8,59.4,29.95,WNW,284,0.0,4.0,55,0.00,,SKC,0.00,151.00,VWS V14.00,2013-07-24 16:59:00,
2013-07-24 12:04:00,76.6,59.2,29.95,NNW,341,0.0,5.0,55,0.00,,SKC,0.00,898.00,VWS V14.00,2013-07-24 17:04:00,
2013-07-24 12:09:00,76.5,57.0,29.95,WNW,291,0.0,4.0,51,0.00,,SKC,0.00,914.00,VWS V14.00,2013-07-24 17:09:00,
2013-07-24 12:14:00,76.7,58.8,29.95,West,269,2.0,3.0,54,0.00,,SKC,0.00,932.00,VWS V14.00,2013-07-24 17:14:00,
2013-07-24 12:19:00,77.2,58.8,29.95,WNW,291,2.0,5.0,53,0.00,,SKC,0.00,981.00,VWS V14.00,2013-07-24 17:19:00,
2013-07-24 12:25:00,77.5,58.5,29.95,WNW,298,1.0,3.0,52,0.00,,SKC,0.00,218.00,VWS V14.00,2013-07-24 17:25:00,
2013-07-24 12:30:00,77.5,58.0,29.95,WNW,286,3.0,4.0,51,0.00,,SKC,0.00,218.00,VWS V14.00,2013-07-24 17:30:00,
2013-07-24 12:35:00,77.5,59.6,29.95,NW,309,2.0,3.0,54,0.00,,SKC,0.00,1009.00,VWS V14.00,2013-07-24 17:35:00,
2013-07-24 12:40:00,77.4,60.0,29.95,West,271,4.0,5.0,55,0.00,,SKC,0.00,925.00,VWS V14.00,2013-07-24 17:40:00,
2013-07-24 12:45:00,77.7,58.7,29.95,WNW,300,2.0,4.0,52,0.00,,SKC,0.00,911.00,VWS V14.00,2013-07-24 17:45:00,
2013-07-24 12:50:00,78.1,56.8,29.95,WSW,257,1.0,5.0,48,0.00,,SKC,0.00,1000.00,VWS V14.00,2013-07-24 17:50:00,
2013-07-24 12:55:00,78.3,56.4,29.94,NNW,334,0.0,1.0,47,0.00,,SKC,0.00,186.00,VWS V14.00,2013-07-24 17:55:00,
2013-07-24 13:00:00,78.4,57.7,29.94,North,5,1.0,4.0,49,0.00,,SKC,0.00,246.00,VWS V14.00,2013-07-24 18:00:00,
2013-07-24 13:05:00,78.5,56.6,29.94,West,275,3.0,6.0,47,0.00,,SKC,0.00,949.00,VWS V14.00,2013-07-24 18:05:00,
2013-07-24 13:10:00,78.4,57.1,29.94,NW,304,2.0,2.0,48,0.00,,SKC,0.00,940.00,VWS V14.00,2013-07-24 18:10:00,
2013-07-24 13:15:00,78.7,57.4,29.93,WNW,286,0.0,5.0,48,0.00,,SKC,0.00,1000.00,VWS V14.00,2013-07-24 18:15:00,
2013-07-24 13:20:00,78.9,57.6,29.93,NNW,329,1.0,4.0,48,0.00,,SKC,0.00,1002.00,VWS V14.00,2013-07-24 18:20:00,
2013-07-24 13:25:00,79.2,57.2,29.93,WNW,299,0.0,2.0,47,0.00,,SKC,0.00,209.00,VWS V14.00,2013-07-24 18:25:00,
2013-07-24 13:30:00,79.3,59.1,29.93,WSW,254,3.0,4.0,50,0.00,,SKC,0.00,912.00,VWS V14.00,2013-07-24 18:30:00,
2013-07-24 13:35:00,79.3,56.8,29.93,NNW,336,2.0,5.0,46,0.00,,SKC,0.00,200.00,VWS V14.00,2013-07-24 18:35:00,
2013-07-24 13:40:00,79.0,57.7,29.93,West,277,1.0,5.0,48,0.00,,SKC,0.00,977.00,VWS V14.00,2013-07-24 18:40:00,
2013-07-24 13:45:00,79.2,58.4,29.93,West,275,3.0,6.0,49,0.00,,SKC,0.00,928.00,VWS V14.00,2013-07-24 18:45:00,
2013-07-24 13:50:00,79.3,57.9,29.93,NNE,19,4.0,6.0,48,0.00,,SKC,0.00,956.00,VWS V14.00,2013-07-24 18:50:00,
2013-07-24 13:56:00,79.3,57.3,29.93,WNW,290,3.0,4.0,47,0.00,,SKC,0.00,870.00,VWS V14.00,2013-07-24 18:56:00,
2013-07-24 14:01:00,79.6,57.6,29.93,WNW,294,4.0,5.0,47,0.00,,SKC,0.00,949.00,VWS V14.00,2013-07-24 19:01:00,
2013-07-24 14:06:00,79.7,56.5,29.92,NW,319,1.0,4.0,45,0.00,,SKC,0.00,923.00,VWS V14.00,2013-07-24 19:06:00,
2013-07-24 14:11:00,79.7,56.5,29.92,WNW,282,3.0,7.0,45,0.00,,SKC,0.00,944.00,VWS V14.00,2013-07-24 19:11:00,
2013-07-24 14:16:00,79.7,56.5,29.92,NW,325,4.0,5.0,45,0.00,,SKC,0.00,921.00,VWS V14.00,2013-07-24 19:16:00,
2013-07-24 14:21:00,79.6,56.4,29.92,NW,323,2.0,5.0,45,0.00,,SKC,0.00,925.00,VWS V14.00,2013-07-24 19:21:00,
2013-07-24 14:26:00,79.8,57.2,29.92,West,279,2.0,4.0,46,0.00,,SKC,0.00,956.00,VWS V14.00,2013-07-24 19:26:00,
2013-07-24 14:31:00,80.2,57.6,29.92,NNW,327,3.0,7.0,46,0.00,,SKC,0.00,937.00,VWS V14.00,2013-07-24 19:31:00,
2013-07-24 14:36:00,80.5,57.8,29.92,West,259,1.0,4.0,46,0.00,,SKC,0.00,962.00,VWS V14.00,2013-07-24 19:36:00,
2013-07-24 14:41:00,80.7,58.0,29.92,West,266,2.0,5.0,46,0.00,,SKC,0.00,178.00,VWS V14.00,2013-07-24 19:41:00,
2013-07-24 14:46:00,80.7,58.6,29.92,NW,320,2.0,4.0,47,0.00,,SKC,0.00,193.00,VWS V14.00,2013-07-24 19:46:00,
2013-07-24 14:53:00,80.8,57.5,29.92,WSW,243,6.0,6.0,45,0.00,,SKC,0.00,954.00,VWS V14.00,2013-07-24 19:53:00,
2013-07-24 14:58:00,80.6,58.5,29.92,West,259,3.0,14.0,47,0.00,,SKC,0.00,930.00,VWS V14.00,2013-07-24 19:58:00,
2013-07-24 15:03:00,80.3,57.0,29.92,West,281,2.0,5.0,45,0.00,,SKC,0.00,930.00,VWS V14.00,2013-07-24 20:03:00,
2013-07-24 15:08:00,79.8,58.4,29.92,WNW,302,1.0,3.0,48,0.00,,SKC,0.00,962.00,VWS V14.00,2013-07-24 20:08:00,
2013-07-24 15:13:00,79.4,57.4,29.92,West,280,2.0,5.0,47,0.00,,SKC,0.00,942.00,VWS V14.00,2013-07-24 20:13:00,
2013-07-24 15:18:00,79.2,57.2,29.92,NNW,340,2.0,6.0,47,0.00,,SKC,0.00,951.00,VWS V14.00,2013-07-24 20:18:00,
2013-07-24 15:23:00,79.2,57.8,29.92,NW,308,3.0,6.0,48,0.00,,SKC,0.00,912.00,VWS V14.00,2013-07-24 20:23:00,
2013-07-24 15:28:00,79.7,58.9,29.92,SW,225,3.0,6.0,49,0.00,,SKC,0.00,914.00,VWS V14.00,2013-07-24 20:28:00,
2013-07-24 15:33:00,80.2,58.2,29.92,WNW,300,4.0,7.0,47,0.00,,SKC,0.00,946.00,VWS V14.00,2013-07-24 20:33:00,
2013-07-24 15:38:00,80.3,58.2,29.91,WNW,297,2.0,6.0,47,0.00,,SKC,0.00,322.00,VWS V14.00,2013-07-24 20:38:00,
2013-07-24 15:43:00,80.1,58.1,29.91,NW,321,2.0,5.0,47,0.00,,SKC,0.00,206.00,VWS V14.00,2013-07-24 20:43:00,
2013-07-24 15:48:00,79.7,58.9,29.91,West,281,2.0,4.0,49,0.00,,SKC,0.00,879.00,VWS V14.00,2013-07-24 20:48:00,
2013-07-24 15:53:00,79.8,58.4,29.91,West,279,4.0,4.0,48,0.00,,SKC,0.00,840.00,VWS V14.00,2013-07-24 20:53:00,
2013-07-24 15:58:00,80.1,58.1,29.91,WSW,248,3.0,7.0,47,0.00,,SKC,0.00,835.00,VWS V14.00,2013-07-24 20:58:00,
2013-07-24 16:03:00,80.3,59.4,29.91,WSW,242,0.0,4.0,49,0.00,,SKC,0.00,835.00,VWS V14.00,2013-07-24 21:03:00,
2013-07-24 16:08:00,80.4,58.3,29.91,WNW,286,3.0,3.0,47,0.00,,SKC,0.00,262.00,VWS V14.00,2013-07-24 21:08:00,
2013-07-24 16:13:00,80.3,59.4,29.91,North,355,1.0,5.0,49,0.00,,SKC,0.00,793.00,VWS V14.00,2013-07-24 21:13:00,
2013-07-24 16:18:00,80.3,58.8,29.91,WSW,257,1.0,5.0,48,0.00,,SKC,0.00,165.00,VWS V14.00,2013-07-24 21:18:00,
2013-07-24 16:23:00,80.3,59.4,29.91,West,273,1.0,4.0,49,0.00,,SKC,0.00,770.00,VWS V14.00,2013-07-24 21:23:00,
2013-07-24 16:28:00,80.6,58.5,29.91,WNW,284,3.0,7.0,47,0.00,,SKC,0.00,733.00,VWS V14.00,2013-07-24 21:28:00,
2013-07-24 16:33:00,80.7,59.2,29.91,WSW,258,4.0,8.0,48,0.00,,SKC,0.00,733.00,VWS V14.00,2013-07-24 21:33:00,
2013-07-24 16:38:00,80.8,58.7,29.90,SW,235,6.0,6.0,47,0.00,,SKC,0.00,696.00,VWS V14.00,2013-07-24 21:38:00,
2013-07-24 16:44:00,80.7,59.8,29.90,SW,217,4.0,4.0,49,0.00,,SKC,0.00,686.00,VWS V14.00,2013-07-24 21:44:00,
2013-07-24 16:49:00,80.8,59.9,29.90,West,272,6.0,6.0,49,0.00,,SKC,0.00,666.00,VWS V14.00,2013-07-24 21:49:00,
2013-07-24 16:54:00,80.8,60.4,29.90,NNW,328,2.0,2.0,50,0.00,,SKC,0.00,654.00,VWS V14.00,2013-07-24 21:54:00,
2013-07-24 16:59:00,80.9,60.5,29.90,NW,309,2.0,3.0,50,0.00,,SKC,0.00,638.00,VWS V14.00,2013-07-24 21:59:00,
2013-07-24 17:04:00,81.1,60.2,29.90,SW,215,2.0,3.0,49,0.00,,SKC,0.00,631.00,VWS V14.00,2013-07-24 22:04:00,
2013-07-24 17:09:00,81.2,60.2,29.90,NNW,327,2.0,5.0,49,0.00,,SKC,0.00,617.00,VWS V14.00,2013-07-24 22:09:00,
2013-07-24 17:14:00,81.2,60.2,29.90,NW,313,1.0,4.0,49,0.00,,SKC,0.00,621.00,VWS V14.00,2013-07-24 22:14:00,
2013-07-24 17:19:00,81.3,60.3,29.90,NNW,346,1.0,2.0,49,0.00,,SKC,0.00,599.00,VWS V14.00,2013-07-24 22:19:00,
2013-07-24 17:24:00,81.4,60.4,29.90,West,274,3.0,4.0,49,0.00,,SKC,0.00,580.00,VWS V14.00,2013-07-24 22:24:00,
2013-07-24 17:29:00,81.3,59.2,29.89,NW,313,1.0,4.0,47,0.00,,SKC,0.00,554.00,VWS V14.00,2013-07-24 22:29:00,
2013-07-24 17:34:00,81.1,59.0,29.89,West,276,3.0,4.0,47,0.00,,SKC,0.00,534.00,VWS V14.00,2013-07-24 22:34:00,
2013-07-24 17:39:00,80.7,59.2,29.89,West,267,3.0,6.0,48,0.00,,SKC,0.00,520.00,VWS V14.00,2013-07-24 22:39:00,
2013-07-24 17:44:00,80.7,59.8,29.89,WNW,284,2.0,5.0,49,0.00,,SKC,0.00,508.00,VWS V14.00,2013-07-24 22:44:00,
2013-07-24 17:49:00,80.8,59.9,29.89,West,269,1.0,4.0,49,0.00,,SKC,0.00,519.00,VWS V14.00,2013-07-24 22:49:00,
2013-07-24 17:54:00,80.9,59.4,29.89,West,281,5.0,5.0,48,0.00,,SKC,0.00,475.00,VWS V14.00,2013-07-24 22:54:00,
2013-07-24 17:59:00,80.9,59.4,29.89,WSW,248,0.0,1.0,48,0.00,,SKC,0.00,461.00,VWS V14.00,2013-07-24 22:59:00,
2013-07-24 18:04:00,80.9,60.5,29.88,West,277,3.0,3.0,50,0.00,,SKC,0.00,464.00,VWS V14.00,2013-07-24 23:04:00,
2013-07-24 18:09:00,80.8,59.3,29.88,WSW,255,2.0,2.0,48,0.00,,SKC,0.00,448.00,VWS V14.00,2013-07-24 23:09:00,
2013-07-24 18:14:00,80.7,59.8,29.88,SW,221,2.0,9.0,49,0.00,,SKC,0.00,427.00,VWS V14.00,2013-07-24 23:14:00,
2013-07-24 18:19:00,80.7,59.8,29.88,West,269,0.0,4.0,49,0.00,,SKC,0.00,413.00,VWS V14.00,2013-07-24 23:19:00,
2013-07-24 18:24:00,80.7,60.3,29.88,North,360,1.0,3.0,50,0.00,,SKC,0.00,404.00,VWS V14.00,2013-07-24 23:24:00,
2013-07-24 18:29:00,80.8,61.0,29.88,NW,304,0.0,0.0,51,0.00,,SKC,0.00,388.00,VWS V14.00,2013-07-24 23:29:00,
2013-07-24 18:34:00,81.0,60.1,29.87,WSW,248,2.0,6.0,49,0.00,,SKC,0.00,346.00,VWS V14.00,2013-07-24 23:34:00,
2013-07-24 18:40:00,81.0,60.6,29.86,WSW,250,3.0,3.0,50,0.00,,SKC,0.00,330.00,VWS V14.00,2013-07-24 23:40:00,
2013-07-24 18:45:00,80.9,60.0,29.87,WSW,248,1.0,3.0,49,0.00,,SKC,0.00,315.00,VWS V14.00,2013-07-24 23:45:00,
2013-07-24 18:50:00,80.7,58.6,29.87,WSW,254,3.0,3.0,47,0.00,,SKC,0.00,301.00,VWS V14.00,2013-07-24 23:50:00,
2013-07-24 18:55:00,80.4,59.5,29.87,West,262,2.0,2.0,49,0.00,,SKC,0.00,281.00,VWS V14.00,2013-07-24 23:55:00,
2013-07-24 19:00:00,80.3,58.8,29.86,SW,236,2.0,3.0,48,0.00,,SKC,0.00,267.00,VWS V14.00,2013-07-25 00:00:00,
2013-07-24 19:05:00,80.2,59.9,29.86,SW,236,1.0,1.0,50,0.00,,SKC,0.00,253.00,VWS V14.00,2013-07-25 00:05:00,
2013-07-24 19:10:00,80.1,59.8,29.87,WSW,248,1.0,3.0,50,0.00,,SKC,0.00,236.00,VWS V14.00,2013-07-25 00:10:00,
2013-07-24 19:15:00,80.0,60.3,29.87,WSW,246,2.0,9.0,51,0.00,,SKC,0.00,214.00,VWS V14.00,2013-07-25 00:15:00,
2013-07-24 19:20:00,79.8,59.5,29.87,WNW,282,1.0,5.0,50,0.00,,SKC,0.00,202.00,VWS V14.00,2013-07-25 00:20:00,
2013-07-24 19:25:00,79.6,59.3,29.87,SSW,211,0.0,3.0,50,0.00,,SKC,0.00,181.00,VWS V14.00,2013-07-25 00:25:00,
2013-07-24 19:30:00,79.4,59.7,29.87,SW,236,2.0,4.0,51,0.00,,SKC,0.00,163.00,VWS V14.00,2013-07-25 00:30:00,
2013-07-24 19:35:00,79.2,60.1,29.87,West,264,1.0,4.0,52,0.00,,SKC,0.00,144.00,VWS V14.00,2013-07-25 00:35:00,
2013-07-24 19:40:00,79.0,59.9,29.87,WSW,254,1.0,2.0,52,0.00,,SKC,0.00,127.00,VWS V14.00,2013-07-25 00:40:00,
2013-07-24 19:45:00,78.7,60.2,29.87,NW,314,1.0,2.0,53,0.00,,SKC,0.00,114.00,VWS V14.00,2013-07-25 00:45:00,
2013-07-24 19:50:00,78.5,60.0,29.87,SW,217,1.0,2.0,53,0.00,,SKC,0.00,97.00,VWS V14.00,2013-07-25 00:50:00,
2013-07-24 19:55:00,78.3,59.8,29.87,SSW,200,1.0,4.0,53,0.00,,SKC,0.00,90.00,VWS V14.00,2013-07-25 00:55:00,
2013-07-24 20:00:00,78.1,60.1,29.87,SW,223,0.0,3.0,54,0.00,,SKC,0.00,33.00,VWS V14.00,2013-07-25 01:00:00,
2013-07-24 20:05:00,77.8,60.4,29.87,SW,223,0.0,1.0,55,0.00,,SKC,0.00,32.00,VWS V14.00,2013-07-25 01:05:00,
2013-07-24 20:10:00,77.5,60.6,29.86,SW,223,0.0,0.0,56,0.00,,SKC,0.00,28.00,VWS V14.00,2013-07-25 01:10:00,
2013-07-24 20:15:00,77.2,60.3,29.86,SW,223,0.0,0.0,56,0.00,,SKC,0.00,25.00,VWS V14.00,2013-07-25 01:15:00,
2013-07-24 20:20:00,76.9,60.0,29.86,SW,223,0.0,1.0,56,0.00,,SKC,0.00,23.00,VWS V14.00,2013-07-25 01:20:00,
2013-07-24 20:25:00,76.5,60.2,29.86,SW,232,1.0,4.0,57,0.00,,SKC,0.00,19.00,VWS V14.00,2013-07-25 01:25:00,
2013-07-24 20:30:00,76.1,60.3,29.86,SW,232,0.0,0.0,58,0.00,,SKC,0.00,18.00,VWS V14.00,2013-07-25 01:30:00,
2013-07-24 20:35:00,75.7,60.4,29.86,SW,232,0.0,1.0,59,0.00,,SKC,0.00,14.00,VWS V14.00,2013-07-25 01:35:00,
2013-07-24 20:40:00,75.3,60.5,29.86,SW,216,0.0,1.0,60,0.00,,SKC,0.00,12.00,VWS V14.00,2013-07-25 01:40:00,
2013-07-24 20:45:00,74.9,60.6,29.86,SW,216,0.0,0.0,61,0.00,,SKC,0.00,9.00,VWS V14.00,2013-07-25 01:45:00,
2013-07-24 20:51:00,74.5,60.2,29.86,SW,216,0.0,1.0,61,0.00,,SKC,0.00,5.00,VWS V14.00,2013-07-25 01:51:00,
2013-07-24 20:56:00,74.1,60.7,29.86,SW,216,0.0,1.0,63,0.00,,SKC,0.00,0.00,VWS V14.00,2013-07-25 01:56:00,
2013-07-24 20:59:00,73.8,60.4,29.86,SW,216,0.0,1.0,63,0.00,,SKC,0.00,0.00,VWS V14.00,2013-07-25 01:59:00,
2013-07-24 21:04:00,73.1,60.2,29.86,SW,216,0.0,1.0,64,0.00,,SKC,0.00,0.00,VWS V14.00,2013-07-25 02:04:00,
2013-07-24 21:09:00,72.5,60.1,29.86,SW,216,0.0,1.0,65,0.00,,SKC,0.00,0.00,VWS V14.00,2013-07-25 02:09:00,
2013-07-24 21:14:00,71.9,59.9,29.86,SSW,196,0.0,1.0,66,0.00,,SKC,0.00,0.00,VWS V14.00,2013-07-25 02:14:00,
2013-07-24 21:19:00,71.3,59.8,29.86,SSW,196,1.0,2.0,67,0.00,,SKC,0.00,0.00,VWS V14.00,2013-07-25 02:19:00,
2013-07-24 21:24:00,70.8,60.1,29.86,SSW,196,0.0,1.0,69,0.00,,SKC,0.00,0.00,VWS V14.00,2013-07-25 02:24:00,
2013-07-24 21:29:00,70.3,60.5,29.86,SSW,196,1.0,1.0,71,0.00,,SKC,0.00,0.00,VWS V14.00,2013-07-25 02:29:00,
2013-07-24 21:36:00,69.8,60.0,29.86,South,183,1.0,2.0,71,0.00,,SKC,0.00,0.00,VWS V14.00,2013-07-25 02:36:00,
2013-07-24 21:41:00,69.5,60.1,29.86,SSE,161,1.0,3.0,72,0.00,,SKC,0.00,0.00,VWS V14.00,2013-07-25 02:41:00,
2013-07-24 21:46:00,69.2,59.8,29.86,SSE,155,0.0,3.0,72,0.00,,SKC,0.00,0.00,VWS V14.00,2013-07-25 02:46:00,
2013-07-24 21:51:00,68.9,59.9,29.86,SSE,162,0.0,2.0,73,0.00,,SKC,0.00,0.00,VWS V14.00,2013-07-25 02:51:00,
2013-07-24 21:56:00,68.6,59.6,29.86,SSE,163,2.0,3.0,73,0.00,,SKC,0.00,0.00,VWS V14.00,2013-07-25 02:56:00,
2013-07-24 22:01:00,68.4,59.0,29.86,SSE,163,1.0,3.0,72,0.00,,SKC,0.00,0.00,VWS V14.00,2013-07-25 03:01:00,
2013-07-24 22:07:00,68.3,59.3,29.86,SSE,164,1.0,4.0,73,0.00,,SKC,0.00,0.00,VWS V14.00,2013-07-25 03:07:00,
2013-07-24 22:13:00,68.1,59.1,29.86,SSE,159,1.0,2.0,73,0.00,,SKC,0.00,0.00,VWS V14.00,2013-07-25 03:13:00,
2013-07-24 22:18:00,68.0,59.4,29.86,SE,145,2.0,3.0,74,0.00,,SKC,0.00,0.00,VWS V14.00,2013-07-25 03:18:00,
2013-07-24 22:23:00,67.9,59.3,29.86,SSE,149,0.0,1.0,74,0.00,,SKC,0.00,0.00,VWS V14.00,2013-07-25 03:23:00,
2013-07-24 22:29:00,67.7,59.5,29.86,SSE,153,1.0,4.0,75,0.00,,SKC,0.00,0.00,VWS V14.00,2013-07-25 03:29:00,
2013-07-24 22:34:00,67.6,59.4,29.86,SSE,153,1.0,4.0,75,0.00,,SKC,0.00,0.00,VWS V14.00,2013-07-25 03:34:00,
2013-07-24 22:39:00,67.5,59.7,29.86,SSE,153,1.0,1.0,76,0.00,,SKC,0.00,0.00,VWS V14.00,2013-07-25 03:39:00,
2013-07-24 22:44:00,67.4,59.6,29.86,SSE,154,2.0,4.0,76,0.00,,SKC,0.00,0.00,VWS V14.00,2013-07-25 03:44:00,
2013-07-24 22:49:00,67.3,59.5,29.86,South,169,2.0,3.0,76,0.00,,SKC,0.00,0.00,VWS V14.00,2013-07-25 03:49:00,
2013-07-24 22:54:00,67.3,59.5,29.87,SE,131,2.0,4.0,76,0.00,,SKC,0.00,0.00,VWS V14.00,2013-07-25 03:54:00,
2013-07-24 22:59:00,67.4,59.6,29.87,SE,130,4.0,4.0,76,0.00,,SKC,0.00,0.00,VWS V14.00,2013-07-25 03:59:00,
2013-07-24 23:01:00,67.4,59.6,29.86,SSE,163,4.0,4.0,76,0.00,,SKC,0.00,0.00,VWS V14.00,2013-07-25 04:01:00,
2013-07-24 23:03:00,67.4,59.6,29.86,SSE,149,2.0,4.0,76,0.00,,SKC,0.00,0.00,VWS V14.00,2013-07-25 04:03:00,
2013-07-24 23:06:00,67.4,59.6,29.86,SSE,165,1.0,4.0,76,0.00,,SKC,0.00,0.00,VWS V14.00,2013-07-25 04:06:00,
2013-07-24 23:11:00,67.4,59.6,29.87,SSE,147,0.0,4.0,76,0.00,,SKC,0.00,0.00,VWS V14.00,2013-07-25 04:11:00,
2013-07-24 23:16:00,67.4,59.6,29.87,SSE,153,4.0,4.0,76,0.00,,SKC,0.00,0.00,VWS V14.00,2013-07-25 04:16:00,
2013-07-24 23:21:00,67.4,59.6,29.86,SSE,155,3.0,5.0,76,0.00,,SKC,0.00,0.00,VWS V14.00,2013-07-25 04:21:00,
2013-07-24 23:26:00,67.5,59.7,29.86,SSE,152,1.0,5.0,76,0.00,,SKC,0.00,0.00,VWS V14.00,2013-07-25 04:26:00,
2013-07-24 23:31:00,67.6,59.4,29.86,South,174,4.0,6.0,75,0.00,,SKC,0.00,0.00,VWS V14.00,2013-07-25 04:31:00,
2013-07-24 23:37:00,67.7,59.1,29.86,South,173,2.0,10.0,74,0.00,,SKC,0.00,0.00,VWS V14.00,2013-07-25 04:37:00,
2013-07-24 23:43:00,68.1,59.5,29.86,SSE,166,6.0,10.0,74,0.00,,SKC,0.00,0.00,VWS V14.00,2013-07-25 04:43:00,
2013-07-24 23:48:00,68.3,59.7,29.86,South,189,10.0,10.0,74,0.00,,SKC,0.00,0.00,VWS V14.00,2013-07-25 04:48:00,
2013-07-24 23:53:00,68.4,59.4,29.85,SSW,198,3.0,10.0,73,0.00,,SKC,0.00,0.00,VWS V14.00,2013-07-25 04:53:00,
2013-07-24 23:58:00,68.5,59.1,29.85,South,184,3.0,4.0,72,0.00,,SKC,0.00,0.00,VWS V14.00,2013-07-25 04:58:00,